User: anonymous   Login
Location: Unspecified
(0.0000°N, 0.0000°E)
Time: 19:20:57
(UTC+01:00)
Language:

AO-40 - Orbit

View from above orbital plane
View from above orbital plane
View from above satellite
View from above satellite

Ground track
Ground track

The orbit data is extracted from the following two-line orbital elements,

1 26609U 00072B   18021.26275652 -.00000081  00000-0  00000+0 0  9998
2 26609   6.4449 180.3771 7926298 203.7181  75.0935  1.25586159 79089
Epoch (UTC): 21 January 2018 06:18:22
Eccentricity: 0.7926298
inclination: 6.4449°
perigee height: 1147 km
apogee height: 58674 km
right ascension of ascending node: 180.3771°
argument of perigee: 203.7181°
revolutions per day: 1.25586159
mean anomaly at epoch: 75.0935°
orbit number at epoch: 7908

The dashed part of the orbit path shows where the satellite is in the earth's shadow,  

DLR